Hourly Weather Barpeta

Today, 19 April, Monday

Time Temperature Precipitation Wind Pressure Humidity
00:00 +25°C° 0 mm 1 mps 752 mmHg 80%
01:00 +25°C° 1 mm 1 mps 751 mmHg 81%
02:00 +24°C° 1 mm 1 mps 751 mmHg 83%
03:00 +24°C° 1 mm 1 mps 751 mmHg 85%
04:00 +24°C° 0.3 mm 1 mps 751 mmHg 85%
05:00 +23°C° 0.3 mm 1 mps 751 mmHg 85%
06:00 +23°C° 0 mm 1 mps 752 mmHg 83%
07:00 +25°C° 0.1 mm 1 mps 752 mmHg 74%
08:00 +25°C° 0.1 mm 0 mps 753 mmHg 65%
09:00 +27°C° 0.1 mm 0 mps 753 mmHg 56%
10:00 +30°C° 0 mm 1 mps 753 mmHg 51%
11:00 +32°C° 0 mm 1 mps 752 mmHg 46%
12:00 +34°C° 0 mm 2 mps 751 mmHg 41%
13:00 +35°C° 0 mm 4 mps 750 mmHg 37%
14:00 +36°C° 0 mm 5 mps 749 mmHg 32%
15:00 +38°C° 0 mm 6 mps 748 mmHg 27%
16:00 +36°C° 0 mm 5 mps 748 mmHg 30%
17:00 +35°C° 0 mm 5 mps 748 mmHg 33%
18:00 +34°C° 0 mm 4 mps 748 mmHg 35%
19:00 +33°C° 0 mm 3 mps 748 mmHg 38%
20:00 +31°C° 0 mm 3 mps 749 mmHg 41%
21:00 +30°C° 0 mm 2 mps 750 mmHg 44%
22:00 +29°C° 0 mm 2 mps 750 mmHg 45%
23:00 +28°C° 0 mm 2 mps 750 mmHg 47%

Tomorrow, 20 April, Tuesday

Time Temperature Precipitation Wind Pressure Humidity
00:00 +27°C° 0 mm 2 mps 750 mmHg 48%
01:00 +27°C° 0 mm 3 mps 750 mmHg 52%
02:00 +26°C° 0 mm 4 mps 750 mmHg 56%
03:00 +25°C° 0 mm 4 mps 750 mmHg 59%
04:00 +25°C° 0 mm 4 mps 750 mmHg 61%
05:00 +25°C° 0 mm 4 mps 751 mmHg 62%
06:00 +25°C° 0 mm 4 mps 751 mmHg 64%
07:00 +26°C° 0 mm 4 mps 752 mmHg 58%
08:00 +28°C° 0 mm 5 mps 752 mmHg 51%
09:00 +30°C° 0 mm 5 mps 753 mmHg 45%
10:00 +33°C° 0 mm 4 mps 753 mmHg 41%
11:00 +34°C° 0 mm 3 mps 752 mmHg 37%
12:00 +36°C° 0 mm 3 mps 752 mmHg 34%
13:00 +36°C° 0 mm 2 mps 751 mmHg 32%
14:00 +37°C° 0 mm 2 mps 750 mmHg 31%
15:00 +38°C° 0 mm 2 mps 749 mmHg 30%
16:00 +37°C° 0 mm 2 mps 749 mmHg 31%
17:00 +36°C° 0 mm 2 mps 748 mmHg 33%
18:00 +36°C° 0 mm 3 mps 748 mmHg 34%
19:00 +35°C° 0 mm 3 mps 749 mmHg 36%
20:00 +34°C° 0 mm 2 mps 750 mmHg 38%
21:00 +31°C° 0 mm 2 mps 751 mmHg 40%
22:00 +30°C° 0 mm 3 mps 751 mmHg 43%
23:00 +29°C° 0 mm 3 mps 751 mmHg 45%

Day after tomorrow, 21 April, Wednesday

Time Temperature Precipitation Wind Pressure Humidity
00:00 +29°C° 0 mm 4 mps 751 mmHg 48%
01:00 +28°C° 0 mm 4 mps 751 mmHg 49%
02:00 +27°C° 0 mm 3 mps 751 mmHg 49%
03:00 +27°C° 0 mm 3 mps 750 mmHg 50%
04:00 +27°C° 0.1 mm 3 mps 751 mmHg 52%
05:00 +26°C° 0.1 mm 2 mps 752 mmHg 53%
06:00 +26°C° 0.1 mm 2 mps 752 mmHg 55%
07:00 +28°C° 0 mm 3 mps 753 mmHg 49%
08:00 +30°C° 0 mm 3 mps 753 mmHg 43%
09:00 +34°C° 0 mm 4 mps 754 mmHg 36%
10:00 +35°C° 0 mm 4 mps 753 mmHg 33%
11:00 +37°C° 0 mm 3 mps 752 mmHg 31%
12:00 +38°C° 0 mm 3 mps 752 mmHg 28%
13:00 +39°C° 0 mm 3 mps 751 mmHg 27%
14:00 +39°C° 0 mm 2 mps 750 mmHg 26%
15:00 +40°C° 0 mm 2 mps 749 mmHg 25%
16:00 +39°C° 0 mm 2 mps 749 mmHg 28%
17:00 +38°C° 0 mm 2 mps 749 mmHg 32%
18:00 +37°C° 0 mm 2 mps 749 mmHg 35%
19:00 +35°C° 0.1 mm 1 mps 749 mmHg 39%
20:00 +33°C° 0.1 mm 1 mps 750 mmHg 43%
21:00 +32°C° 0.1 mm 1 mps 750 mmHg 47%
22:00 +31°C° 0.2 mm 1 mps 750 mmHg 51%
23:00 +30°C° 0.2 mm 2 mps 750 mmHg 55%

22 April, Thursday

Time Temperature Precipitation Wind Pressure Humidity
00:00 +30°C° 0.2 mm 2 mps 751 mmHg 58%
01:00 +29°C° 0.3 mm 2 mps 750 mmHg 60%
02:00 +28°C° 0.3 mm 1 mps 750 mmHg 63%
03:00 +28°C° 0.3 mm 1 mps 750 mmHg 65%
04:00 +27°C° 0.3 mm 1 mps 750 mmHg 67%
05:00 +27°C° 0.3 mm 1 mps 751 mmHg 69%
06:00 +26°C° 0.3 mm 1 mps 751 mmHg 71%
07:00 +28°C° 0.2 mm 1 mps 752 mmHg 66%
08:00 +30°C° 0.2 mm 1 mps 752 mmHg 61%
09:00 +32°C° 0.2 mm 2 mps 753 mmHg 56%
10:00 +33°C° 0 mm 1 mps 752 mmHg 51%
11:00 +35°C° 0 mm 1 mps 752 mmHg 47%
12:00 +36°C° 0 mm 1 mps 751 mmHg 43%
13:00 +38°C° 0 mm 2 mps 750 mmHg 39%
14:00 +40°C° 0 mm 4 mps 749 mmHg 35%
15:00 +41°C° 0 mm 5 mps 748 mmHg 32%
16:00 +40°C° 0 mm 5 mps 747 mmHg 35%
17:00 +38°C° 0 mm 4 mps 747 mmHg 38%
18:00 +37°C° 0 mm 4 mps 747 mmHg 41%
19:00 +35°C° 0.1 mm 4 mps 748 mmHg 44%
20:00 +34°C° 0.1 mm 3 mps 748 mmHg 46%
21:00 +31°C° 0.1 mm 3 mps 749 mmHg 49%
22:00 +30°C° 0.1 mm 3 mps 749 mmHg 52%
23:00 +29°C° 0.1 mm 2 mps 750 mmHg 56%

23 April, Friday

Time Temperature Precipitation Wind Pressure Humidity
00:00 +28°C° 0.1 mm 2 mps 750 mmHg 59%
01:00 +28°C° 0 mm 2 mps 750 mmHg 61%
02:00 +27°C° 0 mm 2 mps 750 mmHg 63%
03:00 +27°C° 0 mm 2 mps 750 mmHg 64%
04:00 +27°C° 0 mm 2 mps 750 mmHg 65%
05:00 +27°C° 0 mm 2 mps 750 mmHg 65%
06:00 +26°C° 0 mm 1 mps 751 mmHg 65%
07:00 +28°C° 0 mm 2 mps 751 mmHg 59%
08:00 +30°C° 0 mm 2 mps 752 mmHg 52%
09:00 +32°C° 0 mm 2 mps 752 mmHg 46%
10:00 +34°C° 0 mm 3 mps 751 mmHg 43%
11:00 +36°C° 0 mm 3 mps 751 mmHg 40%
12:00 +37°C° 0 mm 3 mps 750 mmHg 36%
13:00 +39°C° 0 mm 5 mps 749 mmHg 33%
14:00 +40°C° 0 mm 6 mps 748 mmHg 30%
15:00 +41°C° 0 mm 7 mps 747 mmHg 26%
16:00 +41°C° 0 mm 6 mps 747 mmHg 27%
17:00 +40°C° 0 mm 6 mps 747 mmHg 27%
18:00 +39°C° 0 mm 5 mps 747 mmHg 27%
19:00 +37°C° 0 mm 4 mps 747 mmHg 30%
20:00 +35°C° 0 mm 3 mps 748 mmHg 33%
21:00 +34°C° 0 mm 2 mps 748 mmHg 36%
22:00 +32°C° 0 mm 2 mps 748 mmHg 39%
23:00 +31°C° 0 mm 2 mps 749 mmHg 42%

24 April, Saturday

Time Temperature Precipitation Wind Pressure Humidity
00:00 +30°C° 0 mm 2 mps 749 mmHg 45%
01:00 +30°C° 0 mm 2 mps 749 mmHg 47%
02:00 +29°C° 0 mm 2 mps 748 mmHg 48%
03:00 +29°C° 0 mm 2 mps 748 mmHg 49%
04:00 +28°C° 0.1 mm 2 mps 749 mmHg 51%
05:00 +28°C° 0.1 mm 1 mps 749 mmHg 54%
06:00 +27°C° 0.1 mm 1 mps 750 mmHg 56%
07:00 +29°C° 0 mm 1 mps 751 mmHg 51%
08:00 +31°C° 0 mm 1 mps 751 mmHg 47%
09:00 +33°C° 0 mm 1 mps 752 mmHg 42%
10:00 +36°C° 0 mm 2 mps 751 mmHg 39%
11:00 +37°C° 0 mm 2 mps 751 mmHg 35%
12:00 +39°C° 0 mm 2 mps 750 mmHg 32%
13:00 +40°C° 0 mm 3 mps 749 mmHg 27%
14:00 +42°C° 0 mm 5 mps 748 mmHg 23%
15:00 +44°C° 0 mm 6 mps 747 mmHg 18%
16:00 +42°C° 0 mm 5 mps 747 mmHg 19%
17:00 +41°C° 0 mm 4 mps 747 mmHg 20%
18:00 +39°C° 0 mm 3 mps 747 mmHg 21%
19:00 +37°C° 0 mm 3 mps 748 mmHg 24%
20:00 +36°C° 0 mm 2 mps 748 mmHg 27%
21:00 +34°C° 0 mm 2 mps 749 mmHg 30%
22:00 +32°C° 0 mm 2 mps 749 mmHg 33%
23:00 +31°C° 0 mm 1 mps 749 mmHg 36%
Show more